This is the latest recevied weather packets stored in our database for station/object DB0SWS-6. If no packets are shown the sender has not sent any weather packets the latest 10 day(s).
| Time | Temp. | Humidity | Pressure | Rain* | Wind** | Luminosity | Snow |
|---|---|---|---|---|---|---|---|
| 1777721611 | 23.33° C | 43% | 966 hPa | 0 mm | - | - | - |
| 1777719809 | 22.78° C | 42% | 966.5 hPa | 0 mm | - | - | - |
| 1777718009 | 22.78° C | 41% | 966.8 hPa | 0 mm | - | - | - |
| 1777716209 | 22.22° C | 39% | 967.3 hPa | 0 mm | - | - | - |
| 1777712611 | 20.56° C | 43% | 967.8 hPa | 0 mm | - | - | - |
| 1777710810 | 21.11° C | 37% | 967.9 hPa | 0 mm | - | - | - |
| 1777709009 | 21.11° C | 36% | 967.9 hPa | 0 mm | - | - | - |
| 1777707211 | 21.67° C | 40% | 968.1 hPa | 0 mm | - | - | - |
| 1777705411 | 18.89° C | 48% | 968.2 hPa | 0 mm | - | - | - |
| 1777703609 | 17.78° C | 52% | 968.3 hPa | 0 mm | - | - | - |
| 1777701811 | 15° C | 58% | 967.9 hPa | 0 mm | - | - | - |
| 1777700010 | 13.89° C | 54% | 967.9 hPa | 0 mm | - | - | - |
| 1777698209 | 12.22° C | 56% | 967.9 hPa | 0 mm | - | - | - |
| 1777696409 | 11.67° C | 57% | 967.7 hPa | 0 mm | - | - | - |
| 1777694610 | 11.67° C | 56% | 967.9 hPa | 0 mm | - | - | - |
| 1777692811 | 11.67° C | 56% | 967.8 hPa | 0 mm | - | - | - |
| 1777691010 | 12.78° C | 54% | 967.9 hPa | 0 mm | - | - | - |
| 1777689211 | 12.78° C | 53% | 968 hPa | 0 mm | - | - | - |
| 1777687410 | 15° C | 46% | 968 hPa | 0 mm | - | - | - |
| 1777685609 | 15.56° C | 43% | 968.1 hPa | 0 mm | - | - | - |
| 1777683811 | 15.56° C | 43% | 968.3 hPa | 0 mm | - | - | - |
| 1777682011 | 15.56° C | 44% | 968.4 hPa | 0 mm | - | - | - |
| 1777680210 | 15.56° C | 44% | 968.6 hPa | 0 mm | - | - | - |
| 1777678411 | 16.67° C | 41% | 968.6 hPa | 0 mm | - | - | - |
| 1777676611 | 15.56° C | 43% | 968.7 hPa | 0 mm | - | - | - |
* Rain latest hour (hover to see other rain measurements)
** Current wind speed in m/s (hover to see current wind gust speed)